SB KEPS @ AMSAT $ORB12047.O Orbital Elements 12047.OSCAR
HR AMSAT ORBITAL ELEMENTS FOR OSCAR SATELLITES FROM WA5QGD FORT WORTH,TX February 16, 2012 Send SUBSCRIBE KEPS/UNSUBSCRIBE KEPS to [email protected] only BID: ORB12047.O TO ALL RADIO AMATEURS BT
Satellite: AO-07 Catalog number: 07530 Epoch time: 12046.56395926 Element set: 0309 Inclination: 101.3997 deg RA of node: 048.5278 deg Eccentricity: 0.0011920 Arg of perigee: 162.0250 deg Mean anomaly: 198.1243 deg Mean motion: 12.53587647 rev/day Decay rate: -2.7e-07 rev/day^2 Epoch rev: 70468 Checksum: 307
Satellite: FO-29 Catalog number: 24278 Epoch time: 12046.87148346 Element set: 0785 Inclination: 098.5749 deg RA of node: 163.5824 deg Eccentricity: 0.0350767 Arg of perigee: 346.1550 deg Mean anomaly: 013.0158 deg Mean motion: 13.52976112 rev/day Decay rate: -4.7e-07 rev/day^2 Epoch rev: 76541 Checksum: 332
Satellite: SO-33 Catalog number: 25509 Epoch time: 12046.70937487 Element set: 0168 Inclination: 031.4360 deg RA of node: 306.7496 deg Eccentricity: 0.0352758 Arg of perigee: 211.7131 deg Mean anomaly: 146.1789 deg Mean motion: 14.28668956 rev/day Decay rate: 1.22e-06 rev/day^2 Epoch rev: 69512 Checksum: 327
Satellite: RS-22 Catalog number: 27939 Epoch time: 12047.74704503 Element set: 90 Inclination: 097.8224 deg RA of node: 254.7244 deg Eccentricity: 0.0012493 Arg of perigee: 291.7009 deg Mean anomaly: 068.2871 deg Mean motion: 14.63899896 rev/day Decay rate: 4.88e-06 rev/day^2 Epoch rev: 44811 Checksum: 337
Satellite: VO-52 Catalog number: 28650 Epoch time: 12046.91559534 Element set: 0028 Inclination: 097.6128 deg RA of node: 083.7886 deg Eccentricity: 0.0027837 Arg of perigee: 082.4672 deg Mean anomaly: 277.9733 deg Mean motion: 14.82671442 rev/day Decay rate: 4.83e-06 rev/day^2 Epoch rev: 36685 Checksum: 351
Satellite: HO-68 Catalog number: 36122 Epoch time: 12047.67952976 Element set: 204 Inclination: 100.3798 deg RA of node: 109.4029 deg Eccentricity: 0.0007588 Arg of perigee: 029.0499 deg Mean anomaly: 331.1034 deg Mean motion: 13.16293070 rev/day Decay rate: -4.4e-07 rev/day^2 Epoch rev: 10440 Checksum: 289
/EX SB KEPS @ AMSAT $ORB12047.D Orbital Elements 12047.MICROS
HR AMSAT ORBITAL ELEMENTS FOR THE MICROSATS FROM WA5QGD FORT WORTH,TX February 16, 2012 Send SUBSCRIBE KEPS/UNSUBSCRIBE KEPS to [email protected] only BID: ORB12047.D TO ALL RADIO AMATEURS BT
Satellite: UO-11 Catalog number: 14781 Epoch time: 12047.86253731 Element set: 790 Inclination: 097.9704 deg RA of node: 108.3634 deg Eccentricity: 0.0010119 Arg of perigee: 067.9622 deg Mean anomaly: 292.2663 deg Mean motion: 14.80310306 rev/day Decay rate: 4.24e-06 rev/day^2 Epoch rev: 50198 Checksum: 292
Satellite: AO-16 Catalog number: 20439 Epoch time: 12047.86182278 Element set: 398 Inclination: 098.4167 deg RA of node: 354.7179 deg Eccentricity: 0.0011243 Arg of perigee: 154.3636 deg Mean anomaly: 205.8105 deg Mean motion: 14.32017155 rev/day Decay rate: 9.1e-07 rev/day^2 Epoch rev: 15263 Checksum: 299
Satellite: LO-19 Catalog number: 20442 Epoch time: 12046.85542169 Element set: 0324 Inclination: 098.3820 deg RA of node: 357.1826 deg Eccentricity: 0.0012373 Arg of perigee: 150.0830 deg Mean anomaly: 210.1064 deg Mean motion: 14.32237722 rev/day Decay rate: 1.04e-06 rev/day^2 Epoch rev: 15267 Checksum: 262
Satellite: AO-27 Catalog number: 22825 Epoch time: 12047.59103240 Element set: 33 Inclination: 098.5623 deg RA of node: 352.3791 deg Eccentricity: 0.0007575 Arg of perigee: 277.0046 deg Mean anomaly: 083.0272 deg Mean motion: 14.29429955 rev/day Decay rate: 1.47e-06 rev/day^2 Epoch rev: 95910 Checksum: 303
Satellite: IO-26 Catalog number: 22826 Epoch time: 12046.84522969 Element set: 0793 Inclination: 098.5568 deg RA of node: 352.0501 deg Eccentricity: 0.0008088 Arg of perigee: 274.4365 deg Mean anomaly: 085.5893 deg Mean motion: 14.29700000 rev/day Decay rate: 7.5e-07 rev/day^2 Epoch rev: 95912 Checksum: 327
Satellite: GO-32 Catalog number: 25397 Epoch time: 12046.65212591 Element set: 0706 Inclination: 098.3514 deg RA of node: 031.4742 deg Eccentricity: 0.0000430 Arg of perigee: 312.6122 deg Mean anomaly: 047.5018 deg Mean motion: 14.23256476 rev/day Decay rate: -7.2e-07 rev/day^2 Epoch rev: 70659 Checksum: 276
Satellite: NO-44 Catalog number: 26931 Epoch time: 12046.55588887 Element set: 0971 Inclination: 067.0523 deg RA of node: 076.3919 deg Eccentricity: 0.0006251 Arg of perigee: 276.6384 deg Mean anomaly: 083.3987 deg Mean motion: 14.29759425 rev/day Decay rate: -1.50e-06 rev/day^2 Epoch rev: 54171 Checksum: 342
Satellite: SO-50 Catalog number: 27607 Epoch time: 12046.70269083 Element set: 0690 Inclination: 064.5599 deg RA of node: 307.4521 deg Eccentricity: 0.0085167 Arg of perigee: 272.4092 deg Mean anomaly: 086.7276 deg Mean motion: 14.72214062 rev/day Decay rate: 4.41e-06 rev/day^2 Epoch rev: 49193 Checksum: 313
Satellite: CO-55 Catalog number: 27844 Epoch time: 12046.54404546 Element set: 0312 Inclination: 098.7051 deg RA of node: 056.7006 deg Eccentricity: 0.0008981 Arg of perigee: 215.0211 deg Mean anomaly: 145.0380 deg Mean motion: 14.20960943 rev/day Decay rate: 1.54e-06 rev/day^2 Epoch rev: 44747 Checksum: 283
Satellite: CO-57 Catalog number: 27848 Epoch time: 12046.52659344 Element set: 0260 Inclination: 098.7139 deg RA of node: 055.9660 deg Eccentricity: 0.0008803 Arg of perigee: 217.9654 deg Mean anomaly: 142.0898 deg Mean motion: 14.20720903 rev/day Decay rate: 1.27e-06 rev/day^2 Epoch rev: 44741 Checksum: 321
Satellite: AO-51 Catalog number: 28375 Epoch time: 12046.93466489 Element set: 0196 Inclination: 098.1298 deg RA of node: 018.0044 deg Eccentricity: 0.0084775 Arg of perigee: 051.3238 deg Mean anomaly: 309.5481 deg Mean motion: 14.40895075 rev/day Decay rate: 1.52e-06 rev/day^2 Epoch rev: 40116 Checksum: 319
Satellite: CP3 Catalog number: 31129 Epoch time: 12046.77909748 Element set: 0094 Inclination: 097.8879 deg RA of node: 061.7606 deg Eccentricity: 0.0101609 Arg of perigee: 143.3735 deg Mean anomaly: 217.4392 deg Mean motion: 14.52886230 rev/day Decay rate: 3.01e-06 rev/day^2 Epoch rev: 25620 Checksum: 308
Satellite: CO-65 Catalog number: 32785 Epoch time: 12046.90400964 Element set: 0231 Inclination: 097.8168 deg RA of node: 110.7849 deg Eccentricity: 0.0015809 Arg of perigee: 100.6406 deg Mean anomaly: 259.6571 deg Mean motion: 14.82681578 rev/day Decay rate: 7.22e-06 rev/day^2 Epoch rev: 20564 Checksum: 319
Satellite: PRISM Catalog number: 33493 Epoch time: 12047.65459028 Element set: 431 Inclination: 098.1512 deg RA of node: 185.5176 deg Eccentricity: 0.0018518 Arg of perigee: 333.9221 deg Mean anomaly: 026.1063 deg Mean motion: 14.83195034 rev/day Decay rate: 1.820e-05 rev/day^2 Epoch rev: 16573 Checksum: 285
Satellite: SOHLA-1 Catalog number: 33496 Epoch time: 12046.84787072 Element set: 0657 Inclination: 098.0930 deg RA of node: 159.4919 deg Eccentricity: 0.0007677 Arg of perigee: 071.6879 deg Mean anomaly: 288.5152 deg Mean motion: 14.69866047 rev/day Decay rate: 3.03e-06 rev/day^2 Epoch rev: 16427 Checksum: 350
Satellite: SO-67 Catalog number: 35870 Epoch time: 12047.72344950 Element set: 688 Inclination: 097.2493 deg RA of node: 087.7313 deg Eccentricity: 0.0000910 Arg of perigee: 191.4224 deg Mean anomaly: 270.6904 deg Mean motion: 15.22779353 rev/day Decay rate: 3.034e-05 rev/day^2 Epoch rev: 13412 Checksum: 304
Satellite: TISAT-1 Catalog number: 36799 Epoch time: 12047.78821335 Element set: 704 Inclination: 098.0729 deg RA of node: 123.2251 deg Eccentricity: 0.0014576 Arg of perigee: 201.3130 deg Mean anomaly: 158.7523 deg Mean motion: 14.81514340 rev/day Decay rate: 1.178e-05 rev/day^2 Epoch rev: 8651 Checksum: 289
Satellite: STUDSAT Catalog number: 36801 Epoch time: 12046.93840199 Element set: 0339 Inclination: 098.0792 deg RA of node: 122.6215 deg Eccentricity: 0.0012974 Arg of perigee: 191.4953 deg Mean anomaly: 168.5967 deg Mean motion: 14.83097546 rev/day Decay rate: 3.131e-05 rev/day^2 Epoch rev: 08639 Checksum: 329
Satellite: FO-69 Catalog number: 37227 Epoch time: 12046.04422040 Element set: 0103 Inclination: 071.9672 deg RA of node: 223.6606 deg Eccentricity: 0.0017759 Arg of perigee: 195.0744 deg Mean anomaly: 164.9889 deg Mean motion: 14.76923927 rev/day Decay rate: 3.30e-06 rev/day^2 Epoch rev: 01791 Checksum: 314
Satellite: FO-70 Catalog number: 37380 Epoch time: 12046.50349291 Element set: 0106 Inclination: 071.9705 deg RA of node: 223.0530 deg Eccentricity: 0.0018152 Arg of perigee: 191.1227 deg Mean anomaly: 168.9536 deg Mean motion: 14.76682035 rev/day Decay rate: 3.31e-06 rev/day^2 Epoch rev: 01787 Checksum: 285
/EX SB KEPS @ AMSAT $ORB12047.W Orbital Elements 12047.WEATHER
HR AMSAT ORBITAL ELEMENTS FOR WEATHER SATELLITES FROM WA5QGD FORT WORTH,TX February 16, 2012 Send SUBSCRIBE KEPS/UNSUBSCRIBE KEPS to [email protected] only BID: ORB12047.W TO ALL RADIO AMATEURS BT
Satellite: NOAA-10 Catalog number: 16969 Epoch time: 12046.64226349 Element set: 0819 Inclination: 098.5952 deg RA of node: 077.8006 deg Eccentricity: 0.0011580 Arg of perigee: 231.3121 deg Mean anomaly: 128.7017 deg Mean motion: 14.27526888 rev/day Decay rate: -3.1e-07 rev/day^2 Epoch rev: 32238 Checksum: 304
Satellite: NOAA-11 Catalog number: 19531 Epoch time: 12046.81141848 Element set: 0817 Inclination: 098.7360 deg RA of node: 134.5269 deg Eccentricity: 0.0010444 Arg of perigee: 211.3178 deg Mean anomaly: 148.7375 deg Mean motion: 14.14951757 rev/day Decay rate: -1.46e-06 rev/day^2 Epoch rev: 20720 Checksum: 296
Satellite: NOAA-12 Catalog number: 21263 Epoch time: 12046.98506415 Element set: 0320 Inclination: 098.7382 deg RA of node: 069.1712 deg Eccentricity: 0.0013268 Arg of perigee: 193.0811 deg Mean anomaly: 167.0027 deg Mean motion: 14.25477387 rev/day Decay rate: 1.7e-07 rev/day^2 Epoch rev: 07914 Checksum: 290
